FREPRT-WX Weather Reports


time (UTC)temp
C
wind
direction
speed
KPH
gust
KPH
rain 1hr
cm
rain 24hr
cm
rain mn
cm
humidity
%
barometer
mb
20260503183547 15 237 35.4 0.0 0.00 0.00 0.00 46 983.2
20260503181538 15 235 33.8 0.0 0.00 0.00 0.00 48 983.5
20260503180110 15 236 33.8 0.0 0.00 0.00 0.00 48 983.5
20260503174537 14 235 35.4 0.0 0.00 0.00 0.00 46 983.9
20260503173057 14 238 35.4 0.0 0.00 0.00 0.00 45 983.2
20260503170106 14 236 35.4 0.0 0.00 0.00 0.00 45 983.2
20260503160114 12 236 29.0 0.0 0.00 0.00 0.00 51 982.9
20260503150110 11 240 27.4 0.0 0.00 0.00 0.00 54 983.9
20260503140113 10 230 25.7 0.0 0.00 0.00 0.00 57 983.9
20260503130110 6 233 20.9 0.0 0.00 0.00 0.00 66 984.1
20260503120115 5 225 19.3 0.0 0.00 0.00 0.00 65 984.3
20260503110110 3 223 19.3 0.0 0.00 0.00 0.00 66 983.5
20260503100110 2 221 16.1 0.0 0.00 0.00 0.00 67 983.6
20260503090106 2 202 14.5 0.0 0.00 0.00 0.00 63 983.7
20260503081537 2 192 14.5 0.0 0.00 0.00 0.00 63 984.2
20260503071537 1 185 12.9 0.0 0.00 0.00 0.00 64 984.4
20260503070105 1 185 11.3 0.0 0.00 0.00 0.00 64 984.4
20260503060116 2 199 9.7 0.0 0.00 0.00 0.00 64 985.4
20260503054538 2 192 9.7 0.0 0.00 0.00 0.00 63 985.9
20260503051537 2 198 9.7 0.0 0.00 0.00 0.00 63 986.0
20260503050106 2 205 9.7 0.0 0.00 0.00 0.00 63 986.0
20260503044537 2 206 9.7 0.0 0.00 0.00 0.00 64 986.4
20260503043057 2 208 9.7 0.0 0.00 0.00 0.00 65 985.8
20260503041538 2 210 9.7 0.0 0.00 0.00 0.00 65 985.8
20260503040108 2 212 9.7 0.0 0.00 0.00 0.00 65 985.8
20260503034537 2 217 8.0 0.0 0.00 0.00 0.00 62 986.7
20260503033058 2 219 8.0 0.0 0.00 0.00 0.00 64 986.9
20260503031537 3 211 9.7 0.0 0.00 0.00 0.00 64 986.9
20260503030107 3 221 9.7 0.0 0.00 0.00 0.00 64 986.9
20260503024537 3 231 9.7 0.0 0.00 0.00 0.00 61 987.6
20260503023057 3 232 9.7 0.0 0.00 0.00 0.00 64 987.4
20260503021538 3 234 11.3 0.0 0.00 0.00 0.00 64 987.4
20260503020106 3 235 11.3 0.0 0.00 0.00 0.00 64 987.4
20260503014537 3 238 11.3 0.0 0.00 0.00 0.00 60 986.8
20260503013055 4 239 11.3 0.0 0.00 0.00 0.00 60 986.8
20260503011537 4 229 9.7 0.0 0.00 0.00 0.00 60 986.8
20260503010104 5 235 9.7 0.0 0.00 0.00 0.00 60 986.8
20260503004537 5 239 9.7 0.0 0.00 0.00 0.00 52 987.6
20260503003051 5 230 8.0 0.0 0.00 0.00 0.00 52 987.9
20260503001537 6 236 8.0 0.0 0.00 0.00 0.00 52 987.9
20260503000106 6 241 8.0 0.0 0.00 0.00 0.00 52 987.9
20260502234538 7 256 9.7 0.0 0.00 0.00 0.00 42 987.5
20260502233050 7 263 12.9 0.0 0.00 0.00 0.00 42 987.6
20260502231538 7 265 14.5 0.0 0.00 0.00 0.00 42 987.6
20260502230104 7 269 16.1 0.0 0.00 0.00 0.00 42 987.6
20260502224538 7 271 17.7 0.0 0.00 0.00 0.00 39 988.1
20260502223056 8 269 19.3 0.0 0.00 0.00 0.00 40 988.7
20260502221538 8 270 19.3 0.0 0.00 0.00 0.00 40 988.7
20260502220104 8 270 19.3 0.0 0.00 0.00 0.00 40 988.7
20260502214538 8 272 19.3 0.0 0.00 0.00 0.00 42 988.8
20260502213056 8 270 17.7 0.0 0.00 0.00 0.00 39 988.5
20260502211538 8 271 16.1 0.0 0.00 0.00 0.00 39 988.5
20260502210107 8 272 16.1 0.0 0.00 0.00 0.00 39 988.5
20260502204538 8 271 16.1 0.0 0.00 0.00 0.00 41 988.8
20260502203056 8 271 17.7 0.0 0.00 0.00 0.00 39 989.3
20260502201538 8 272 17.7 0.0 0.00 0.00 0.00 39 989.3
20260502200104 8 274 17.7 0.0 0.00 0.00 0.00 39 989.3
20260502194538 8 274 17.7 0.0 0.00 0.00 0.00 46 989.5
20260502193051 7 276 17.7 0.0 0.00 0.00 0.00 46 989.5
20260502191538 7 279 17.7 0.0 0.00 0.00 0.00 46 989.5
20260502190104 7 278 17.7 0.0 0.00 0.00 0.00 46 989.5
20260502184538 7 278 17.7 0.0 0.00 0.00 0.00 45 989.5